Wheaton NDB, MN

11:37 PM CDT on April 25, 2017 (GMT -0500)
Wheaton Municipal

Weather History for KETH - January, 2014

Change the Weather History Date:

Thursday, January 16, 2014

  Actual Average Record
Temperature  
Mean Temperature 22 °F -  
Max Temperature 39 °F 22 °F 44 °F (1961)
Min Temperature 5 °F 0 °F -30 °F (1977)
Degree Days  
Heating Degree Days 43    
Moisture  
Dew Point 10 °F    
Average Humidity 80    
Maximum Humidity 93    
Minimum Humidity 66    
Precipitation  
Precipitation 0.00 in - - ()
Sea Level Pressure  
Sea Level Pressure 29.80 in    
Wind  
Wind Speed 25 mph (NW)    
Max Wind Speed 33 mph    
Max Gust Speed 45 mph    
Visibility 5 miles    
Events Rain , Snow    
Averages and records for this station are not official NWS values.
T = Trace of Precipitation, MM = Missing Value Source: NWS Daily Summary

Daily Weather History Graph

Daily Weather History Graph

Search for Another Location

Airport or City:

Trip Planner

Search our weather history database for the weather conditions in past years. The results will help you decide how hot, cold, wet, or windy it might be!

Date:

Astronomy

Jan. 16, 2014 Rise Set
Actual Time 8:02 AM CST 5:09 PM CST
Civil Twilight 7:29 AM CST 5:42 PM CST
Nautical Twilight 6:52 AM CST 6:19 PM CST
Astronomical Twilight 6:17 AM CST 6:55 PM CST
Moon 6:07 PM CST (1/16) 7:52 AM CST (1/16)
Length of Visible Light 10h 13m
Length of Day
9h 06m
Full, 100% of the Moon is Illuminated
Jan 16
Full
Jan 23
Last Quarter
Jan 30
New
Feb 6
First Quarter
Feb 14
Full

Hourly Weather History & Observations

Time (CST) Temp. Windchill Dew Point Humidity Pressure Visibility Wind Dir Wind Speed Gust Speed Precip Events Conditions
12:15 AM 39.2 °F 27.6 °F 32.0 °F 75% 29.42 in 10.0 mi WNW 28.8 mph 40.3 mph N/A Rain Light Rain
12:34 AM 37.4 °F 25.2 °F 33.8 °F 87% 29.42 in 2.5 mi West 28.8 mph 42.6 mph N/A Snow Light Snow
12:54 AM 37.4 °F 25.2 °F 33.8 °F 87% 29.42 in 10.0 mi WNW 28.8 mph 36.8 mph N/A Rain Light Rain
1:14 AM 37.4 °F 25.4 °F 33.8 °F 87% 29.42 in 4.0 mi West 27.6 mph 38.0 mph N/A Snow Light Snow
1:34 AM 37.4 °F 26.6 °F 33.8 °F 87% 29.42 in 2.5 mi West 21.9 mph 33.4 mph N/A Snow Light Snow
1:54 AM 35.6 °F 24.0 °F 33.8 °F 93% 29.42 in 10.0 mi West 23.0 mph 32.2 mph N/A Snow Light Snow
2:14 AM 37.4 °F 25.9 °F 33.8 °F 87% 29.41 in 10.0 mi West 25.3 mph 34.5 mph N/A   Overcast
2:34 AM 37.4 °F 25.4 °F 33.8 °F 87% 29.42 in 10.0 mi WNW 27.6 mph 39.1 mph N/A   Overcast
2:54 AM 37.4 °F 25.6 °F 32.0 °F 81% 29.42 in 10.0 mi WNW 26.5 mph 40.3 mph N/A   Overcast
3:14 AM 37.4 °F 25.0 °F 32.0 °F 81% 29.43 in 10.0 mi WNW 29.9 mph 38.0 mph N/A   Overcast
3:34 AM 37.4 °F 25.6 °F 30.2 °F 75% 29.44 in 10.0 mi WNW 26.5 mph 39.1 mph N/A Rain Light Rain
3:54 AM 30.2 °F 14.7 °F 26.6 °F 86% 29.51 in 3.0 mi NNW 32.2 mph 44.9 mph N/A Snow Light Snow
4:14 AM 24.8 °F 7.9 °F 21.2 °F 86% 29.54 in 0.5 mi NNW 29.9 mph 40.3 mph N/A Snow Light Snow
4:34 AM 23.0 °F 5.7 °F 19.4 °F 86% 29.55 in 1.0 mi North 28.8 mph 39.1 mph N/A Snow Light Snow
4:54 AM 21.2 °F 4.5 °F 19.4 °F 93% 29.56 in 2.0 mi NNW 24.2 mph 32.2 mph N/A Snow Light Snow
5:14 AM 21.2 °F 6.4 °F 19.4 °F 93% 29.58 in 3.0 mi NNW 18.4 mph 26.5 mph N/A Snow Light Snow
5:34 AM 21.2 °F 6.8 °F 17.6 °F 86% 29.59 in 4.0 mi NNW 17.3 mph 24.2 mph N/A Snow Light Snow
5:54 AM 19.4 °F 5.5 °F 15.8 °F 86% 29.60 in 2.0 mi NNW 15.0 mph 27.6 mph N/A Snow Light Snow
6:14 AM 17.6 °F 0.1 °F 14.0 °F 86% 29.61 in 4.0 mi NNW 23.0 mph 29.9 mph N/A Snow Light Snow
6:34 AM 17.6 °F 1.3 °F 14.0 °F 86% 29.62 in 4.0 mi NNW 19.6 mph 23.0 mph N/A Snow Light Snow
6:54 AM 17.6 °F 2.2 °F 14.0 °F 86% 29.63 in 2.0 mi NNW 17.3 mph 23.0 mph N/A Snow Light Snow
7:14 AM 17.6 °F 5.0 °F 14.0 °F 86% 29.65 in 4.0 mi NNW 11.5 mph - N/A Snow Light Snow
7:34 AM 15.8 °F 2.7 °F 12.2 °F 86% 29.66 in 2.5 mi North 11.5 mph - N/A Snow Light Snow
7:54 AM 15.8 °F 0.9 °F 12.2 °F 86% 29.65 in 2.0 mi North 15.0 mph - N/A Snow Light Snow
8:14 AM 14.0 °F -3.0 °F 10.4 °F 86% 29.67 in 2.5 mi North 18.4 mph - N/A Snow Light Snow
8:34 AM 12.2 °F -5.3 °F 8.6 °F 85% 29.68 in 3.0 mi North 18.4 mph - N/A Snow Light Snow
8:54 AM 12.2 °F -3.7 °F 8.6 °F 85% 29.70 in 7.0 mi NNW 15.0 mph 20.7 mph N/A Snow Light Snow
9:14 AM 12.2 °F -5.3 °F 10.4 °F 92% 29.70 in 3.0 mi NNW 18.4 mph 25.3 mph N/A Snow Light Snow
9:34 AM 12.2 °F -7.5 °F 8.6 °F 85% 29.73 in 3.0 mi NNW 24.2 mph 29.9 mph N/A Snow Light Snow
9:54 AM 12.2 °F -7.1 °F 8.6 °F 85% 29.73 in 2.0 mi NW 23.0 mph 33.4 mph N/A Snow Light Snow
10:14 AM 12.2 °F -8.2 °F 8.6 °F 85% 29.75 in 5.0 mi NW 26.5 mph 31.1 mph N/A   Overcast
10:34 AM 10.4 °F -10.7 °F 6.8 °F 85% 29.78 in 0.5 mi North 26.5 mph 41.4 mph N/A Snow Light Snow
10:54 AM 8.6 °F -14.8 °F 3.2 °F 79% 29.80 in 1.5 mi NNW 32.2 mph 41.4 mph N/A Snow Light Snow
11:14 AM 8.6 °F -12.7 °F 3.2 °F 79% 29.82 in 1.8 mi NNW 25.3 mph 38.0 mph N/A Snow Light Snow
11:34 AM 8.6 °F -13.8 °F 3.2 °F 79% 29.83 in 1.8 mi NNW 28.8 mph 42.6 mph N/A Snow Light Snow
11:54 AM 8.6 °F -13.4 °F 3.2 °F 79% 29.83 in 1.0 mi NNW 27.6 mph 38.0 mph N/A Snow Light Snow
12:14 PM 8.6 °F -13.8 °F 3.2 °F 79% 29.85 in 1.2 mi NW 28.8 mph 35.7 mph N/A Snow Light Snow
12:34 PM 8.6 °F -14.1 °F 1.4 °F 73% 29.85 in 1.5 mi NW 29.9 mph 44.9 mph N/A Snow Light Snow
12:54 PM 6.8 °F -14.7 °F 3.2 °F 85% 29.86 in 0.5 mi NW 24.2 mph 39.1 mph N/A Snow Light Snow
1:14 PM 6.8 °F -17.3 °F 3.2 °F 85% 29.86 in 0.8 mi NW 32.2 mph 41.4 mph N/A Snow Light Snow
1:34 PM 6.8 °F -15.9 °F 3.2 °F 85% 29.87 in 0.5 mi NW 27.6 mph 34.5 mph N/A Snow Light Snow
1:54 PM 6.8 °F -17.6 °F 1.4 °F 79% 29.88 in 0.8 mi NW 33.4 mph 42.6 mph N/A Snow Light Snow
2:14 PM 6.8 °F -16.9 °F 1.4 °F 79% 29.89 in 7.0 mi NW 31.1 mph 40.3 mph N/A   Overcast
2:34 PM 6.8 °F -16.9 °F 1.4 °F 79% 29.90 in 0.8 mi NW 31.1 mph 41.4 mph N/A Snow Light Snow
2:54 PM 6.8 °F -17.6 °F 1.4 °F 79% 29.92 in 2.0 mi NW 33.4 mph 42.6 mph N/A Snow Light Snow
3:14 PM 8.6 °F -13.4 °F 3.2 °F 79% 29.92 in 1.8 mi NW 27.6 mph 34.5 mph N/A Snow Light Snow
3:34 PM 8.6 °F -13.8 °F 3.2 °F 79% 29.93 in 2.5 mi NW 28.8 mph 36.8 mph N/A   Haze
3:54 PM 8.6 °F -13.8 °F 3.2 °F 79% 29.94 in 0.8 mi NW 28.8 mph 38.0 mph N/A Snow Light Snow
4:14 PM 8.6 °F -13.4 °F 5.0 °F 85% 29.95 in 1.0 mi NW 27.6 mph 35.7 mph N/A Snow Light Snow
4:34 PM 8.6 °F -13.1 °F 3.2 °F 79% 29.96 in 4.0 mi NW 26.5 mph 33.4 mph N/A   Overcast
4:54 PM 8.6 °F -11.9 °F 3.2 °F 79% 29.98 in 7.0 mi NW 23.0 mph 32.2 mph N/A   Overcast
5:14 PM 8.6 °F -11.9 °F 5.0 °F 85% 29.99 in 1.2 mi NW 23.0 mph 27.6 mph N/A Snow Light Snow
5:34 PM 8.6 °F -11.0 °F 5.0 °F 85% 30.00 in 4.0 mi NW 20.7 mph 34.5 mph N/A   Overcast
5:54 PM 8.6 °F -12.3 °F 5.0 °F 85% 30.01 in 4.0 mi NW 24.2 mph 35.7 mph N/A   Overcast
6:14 PM 8.6 °F -11.9 °F 5.0 °F 85% 30.02 in 7.0 mi NW 23.0 mph 32.2 mph N/A   Overcast
6:34 PM 10.4 °F -7.7 °F 5.0 °F 79% 30.02 in 10.0 mi NW 18.4 mph 32.2 mph N/A   Scattered Clouds
6:54 PM 10.4 °F -9.1 °F 3.2 °F 73% 30.03 in 10.0 mi NW 21.9 mph 31.1 mph N/A   Scattered Clouds
7:14 PM 8.6 °F -10.5 °F 1.4 °F 73% 30.05 in 10.0 mi NW 19.6 mph 27.6 mph N/A   Scattered Clouds
7:34 PM 8.6 °F -11.9 °F 1.4 °F 73% 30.05 in 10.0 mi NW 23.0 mph 31.1 mph N/A   Clear
7:54 PM 8.6 °F -11.9 °F -0.4 °F 67% 30.06 in 10.0 mi NW 23.0 mph 34.5 mph N/A   Clear
8:14 PM 8.6 °F -10.5 °F -0.4 °F 67% 30.07 in 10.0 mi NW 19.6 mph 28.8 mph N/A   Clear
8:34 PM 8.6 °F -11.0 °F -0.4 °F 67% 30.08 in 10.0 mi NW 20.7 mph 29.9 mph N/A   Clear
8:54 PM 8.6 °F -13.1 °F -0.4 °F 67% 30.08 in 10.0 mi NW 26.5 mph 34.5 mph N/A   Clear
9:14 PM 6.8 °F -14.3 °F -2.2 °F 67% 30.08 in 10.0 mi NW 23.0 mph 32.2 mph N/A   Clear
9:34 PM 6.8 °F -13.8 °F -2.2 °F 67% 30.09 in 10.0 mi NNW 21.9 mph 32.2 mph N/A   Clear
9:54 PM 6.8 °F -11.8 °F -2.2 °F 67% 30.10 in 10.0 mi NNW 17.3 mph 28.8 mph N/A   Clear
10:14 PM 6.8 °F -15.1 °F -2.2 °F 67% 30.09 in 10.0 mi NW 25.3 mph 39.1 mph N/A   Clear
10:34 PM 6.8 °F -14.3 °F -2.2 °F 67% 30.10 in 10.0 mi NNW 23.0 mph 36.8 mph N/A   Clear
10:54 PM 5.0 °F -14.2 °F -4.0 °F 66% 30.11 in 10.0 mi NW 17.3 mph 25.3 mph N/A   Clear
11:14 PM 5.0 °F -15.2 °F -4.0 °F 66% 30.11 in 10.0 mi NW 19.6 mph 27.6 mph N/A   Clear
11:34 PM 5.0 °F -16.2 °F -4.0 °F 66% 30.11 in 10.0 mi NW 21.9 mph 29.9 mph N/A   Clear
11:54 PM 5.0 °F -14.2 °F -4.0 °F 66% 30.11 in 10.0 mi NW 17.3 mph 28.8 mph N/A   Clear